Location: Krasnoyarskiy Pitomnik
(51.1333°N, 71.6167°E)
Time: 08:51:48
(UTC+00:00)

ALOS - Pass Details

Date: 22 October 2021
Orbit: 683 x 684 km, 97.9° (Epoch: 06 December)

Event Time Altitude Azimuth Distance (km) Brightness Sun altitude
Rises 22:30:09 0° 21° (NNE) 3,064 6.2 -31.6°
Reaches altitude 10° 22:32:36 10° 31° (NNE) 2,143 5.4 -31.2°
Maximum altitude 22:36:50 33° 95° (E) 1,155 3.8 -30.6°
Enters shadow 22:38:12 28° 128° (SE) 1,291 3.9 -30.4°
